Preview of NWS' New Version of Forecast
This preview is not operational and should not be used for support decisions.

Regional Weather Roundup (RWR)

Issued by National Weather Service (NWS)

                            
000
ASUS43 KBIS 202210
RWRND 

NORTH DAKOTA REGIONAL WEATHER ROUNDUP
NATIONAL WEATHER SERVICE BISMARCK ND
400 PM CST WED FEB 20 2019

NOTE: "FAIR" INDICATES FEW OR NO CLOUDS BELOW 12,000 FEET WITH NO
SIGNIFICANT WEATHER AND/OR OBSTRUCTIONS TO VISIBILITY.


NDZ001>003-009>011-017-202300-
NORTHWEST NORTH DAKOTA
  
CITY           SKY/WX    TMP DP  RH WIND       PRES   REMARKS
WILLISTON      MOSUNNY   12   4  70 W7        29.68S WCI   1          
MINOT          LGT SNOW  13   6  74 N8        29.67S WCI   2          
$$
 
NDZ018>021-031>035-040>046-202300-
SOUTHWEST NORTH DAKOTA
  
CITY           SKY/WX    TMP DP  RH WIND       PRES   REMARKS
BISMARCK       LGT SNOW  15   9  76 N10       29.65S WCI   2          
DICKINSON      PTSUNNY    8   1  73 NW8       29.58S WCI  -4          
GARRISON         N/A     14   8  77 N8        29.64S WCI   3          
HETTINGER ARPT PTSUNNY   12   6  77 W9        29.60R WCI   0          
$$
 
NDZ004>008-012>016-024-026-027-054-202300-
NORTHEAST NORTH DAKOTA
  
CITY           SKY/WX    TMP DP  RH WIND       PRES   REMARKS
GRAND FORKS    LGT SNOW  19  14  81 NE17      29.66S WCI   4          
GRND FRKS AFB  LGT SNOW  19  16  86 NE14      29.67R WCI   6          
DEVILS LAKE    LGT SNOW  15  11  83 N14       29.66S FOG     WCI   0  
$$
 
NDZ022-023-025-028>030-036>039-047>053-202300-
SOUTHEAST NORTH DAKOTA
  
CITY           SKY/WX    TMP DP  RH WIND       PRES   REMARKS
FARGO          LGT SNOW  22  19  89 NE9       29.60S VSB 3/4 WCI  12  
JAMESTOWN      LGT SNOW  16  14  92 N12       29.59R VSB 3/4 WCI   3  
$$